Location: *
(58.7167°N, 26.1833°E)
Time: 05:04:12
(UTC+00:00)

SPOT 5 - Pass Details

Date: 25 August 2019
Orbit: 623 x 815 km, 98.3° (Epoch: 18 September)

Event Time Altitude Azimuth Distance (km) Brightness Sun altitude
Exits shadow 18:16:34 - 119° (ESE) 2,267 4.7 -5.5°
Reaches altitude 10° 18:17:17 10° 114° (ESE) 2,006 4.5 -5.6°
Maximum altitude 18:20:59 28° 56° (NE) 1,199 3.8 -6.0°
Drops below altitude 10° 18:24:46 10° 358° (N) 2,062 5.8 -6.4°
Sets 18:27:15 0° 347° (NNW) 3,002 6.9 -6.7°
